GLO4567 SBCT-SBGR

Flight info

Callsign GLO4567
Flight time 0h 46m
Altitude 31000
Route XONUG UZ121 BUXUK
Aircraft B38M/M-SDE1FGHILORVWXY/HB1

Departure

Time 2026-05-05 19:04
Airport Curitiba-Afonso Pena International Airport (SBCT)

Arrival

Time 2026-05-05 19:51
Airport São Paulo/Guarulhos–Governor André Franco Montoro International Airport (SBGR)
Time Latitude Longitude Altitude Speed Heading
2026-05-05 18:48 -25.53164 -49.18066 2985 ft 0 kts 131°
2026-05-05 18:52 -25.53161 -49.18070 2985 ft 2 kts 131°
2026-05-05 18:53 -25.53155 -49.18080 2985 ft 0 kts 85°
2026-05-05 18:53 -25.53145 -49.18069 2985 ft 0 kts 38°
2026-05-05 18:56 -25.53144 -49.18069 2985 ft 0 kts 38°
2026-05-05 18:57 -25.53136 -49.18061 2985 ft 3 kts 39°
2026-05-05 18:57 -25.53110 -49.18032 2985 ft 8 kts 46°
2026-05-05 18:57 -25.53058 -49.17976 2985 ft 13 kts 43°
2026-05-05 18:57 -25.52984 -49.17902 2985 ft 8 kts 27°
2026-05-05 18:58 -25.52943 -49.17908 2985 ft 4 kts 323°
2026-05-05 18:58 -25.52917 -49.17935 2984 ft 6 kts 317°
2026-05-05 18:58 -25.52877 -49.17976 2983 ft 9 kts 321°
2026-05-05 18:58 -25.52815 -49.17994 2983 ft 10 kts 356°
2026-05-05 18:59 -25.52748 -49.17998 2984 ft 9 kts 357°
2026-05-05 18:59 -25.52679 -49.18001 2984 ft 11 kts 358°
2026-05-05 18:59 -25.52597 -49.18004 2984 ft 13 kts 358°
2026-05-05 18:59 -25.52503 -49.18009 2984 ft 14 kts 353°
2026-05-05 19:00 -25.52442 -49.18038 2996 ft 15 kts 321°
2026-05-05 19:00 -25.52365 -49.18120 2997 ft 16 kts 315°
2026-05-05 19:00 -25.52289 -49.18196 2997 ft 10 kts 338°
2026-05-05 19:00 -25.52242 -49.18211 2996 ft 11 kts 345°
2026-05-05 19:01 -25.52218 -49.18259 2995 ft 4 kts 236°
2026-05-05 19:01 -25.52226 -49.18263 2995 ft 1 kts 189°
2026-05-05 19:01 -25.52228 -49.18262 2996 ft 0 kts 173°
2026-05-05 19:01 -25.52229 -49.18261 2995 ft 0 kts 158°
2026-05-05 19:02 -25.52231 -49.18260 2996 ft 0 kts 148°
2026-05-05 19:02 -25.52231 -49.18259 2996 ft 0 kts 147°
2026-05-05 19:03 -25.52242 -49.18250 2996 ft 13 kts 142°
2026-05-05 19:03 -25.52503 -49.17961 2997 ft 92 kts 134°
2026-05-05 19:04 -25.53123 -49.17274 3004 ft 157 kts 135°
2026-05-05 19:04 -25.53967 -49.16329 3331 ft 183 kts 136°
2026-05-05 19:04 -25.54962 -49.15303 3823 ft 195 kts 130°
2026-05-05 19:04 -25.55454 -49.13988 4816 ft 189 kts 88°
2026-05-05 19:05 -25.55042 -49.12576 5355 ft 206 kts 53°
2026-05-05 19:05 -25.54183 -49.11215 6024 ft 226 kts 55°
2026-05-05 19:05 -25.53312 -49.09664 6618 ft 248 kts 57°
2026-05-05 19:05 -25.52380 -49.07968 7216 ft 268 kts 57°
2026-05-05 19:06 -25.51407 -49.06175 8044 ft 278 kts 57°
2026-05-05 19:06 -25.50388 -49.04284 8281 ft 290 kts 58°
2026-05-05 19:06 -25.49348 -49.02352 8402 ft 293 kts 58°
2026-05-05 19:06 -25.48296 -49.00406 8555 ft 295 kts 58°
2026-05-05 19:07 -25.47241 -48.98455 8699 ft 296 kts 58°
2026-05-05 19:07 -25.46159 -48.96519 8829 ft 295 kts 51°
2026-05-05 19:07 -25.44624 -48.95070 8903 ft 291 kts 24°
2026-05-05 19:07 -25.42717 -48.94363 8953 ft 290 kts 13°
2026-05-05 19:08 -25.40740 -48.93788 9278 ft 294 kts 12°
2026-05-05 19:08 -25.38768 -48.93228 10363 ft 293 kts 12°
2026-05-05 19:08 -25.36741 -48.92663 11006 ft 310 kts 12°
2026-05-05 19:08 -25.34586 -48.92071 11543 ft 327 kts 12°
2026-05-05 19:09 -25.32366 -48.91466 12185 ft 338 kts 12°
2026-05-05 19:09 -25.30072 -48.90842 13059 ft 341 kts 13°
2026-05-05 19:09 -25.27753 -48.90211 13855 ft 346 kts 13°
2026-05-05 19:09 -25.25403 -48.89569 14576 ft 350 kts 14°
2026-05-05 19:10 -25.23138 -48.88500 15231 ft 358 kts 32°
2026-05-05 19:10 -25.21160 -48.86810 15914 ft 363 kts 38°
2026-05-05 19:10 -25.19150 -48.85094 16557 ft 368 kts 37°
2026-05-05 19:10 -25.17099 -48.83369 17236 ft 372 kts 37°
2026-05-05 19:11 -25.15018 -48.81637 17882 ft 376 kts 36°
2026-05-05 19:11 -25.12914 -48.79893 18476 ft 381 kts 36°
2026-05-05 19:11 -25.10767 -48.78121 18854 ft 390 kts 36°
2026-05-05 19:11 -25.08612 -48.76343 19412 ft 392 kts 36°
2026-05-05 19:12 -25.06405 -48.74522 19934 ft 397 kts 36°
2026-05-05 19:12 -25.04185 -48.72692 20448 ft 400 kts 36°
2026-05-05 19:12 -25.01944 -48.70845 20980 ft 404 kts 36°
2026-05-05 19:12 -24.99685 -48.68984 21482 ft 408 kts 36°
2026-05-05 19:13 -24.97403 -48.67106 22011 ft 411 kts 36°
2026-05-05 19:13 -24.95098 -48.65209 22507 ft 415 kts 36°
2026-05-05 19:13 -24.92776 -48.63298 23011 ft 419 kts 36°
2026-05-05 19:13 -24.90432 -48.61371 23496 ft 423 kts 35°
2026-05-05 19:14 -24.88065 -48.59427 23930 ft 426 kts 35°
2026-05-05 19:14 -24.85680 -48.57467 24362 ft 428 kts 35°
2026-05-05 19:14 -24.83315 -48.55526 24772 ft 431 kts 35°
2026-05-05 19:14 -24.80902 -48.53546 25194 ft 434 kts 35°
2026-05-05 19:15 -24.78438 -48.51525 25625 ft 437 kts 35°
2026-05-05 19:15 -24.76023 -48.49545 26029 ft 440 kts 35°
2026-05-05 19:15 -24.73558 -48.47526 26430 ft 443 kts 35°
2026-05-05 19:15 -24.71080 -48.45495 26873 ft 444 kts 35°
2026-05-05 19:16 -24.68594 -48.43461 27377 ft 444 kts 35°
2026-05-05 19:16 -24.66116 -48.41433 27900 ft 443 kts 35°
2026-05-05 19:16 -24.63645 -48.39412 28416 ft 443 kts 35°
2026-05-05 19:16 -24.61174 -48.37392 28918 ft 442 kts 35°
2026-05-05 19:17 -24.60075 -48.36495 29132 ft 442 kts 35°
2026-05-05 19:18 -24.59462 -48.35994 29234 ft 438 kts 35°
2026-05-05 19:18 -24.57013 -48.33993 29091 ft 442 kts 35°
2026-05-05 19:18 -24.54539 -48.31975 29368 ft 442 kts 35°
2026-05-05 19:18 -24.52072 -48.29962 29868 ft 441 kts 35°
2026-05-05 19:19 -24.49604 -48.27949 30295 ft 442 kts 35°
2026-05-05 19:19 -24.47164 -48.25961 30652 ft 442 kts 35°
2026-05-05 19:19 -24.44691 -48.23946 31014 ft 443 kts 35°
2026-05-05 19:19 -24.42212 -48.21928 31155 ft 444 kts 35°
2026-05-05 19:20 -24.37272 -48.17910 31141 ft 441 kts 35°
2026-05-05 19:20 -24.32120 -48.14329 31148 ft 438 kts 26°
2026-05-05 19:21 -24.26744 -48.11150 31146 ft 438 kts 26°
2026-05-05 19:21 -24.21401 -48.08000 31143 ft 438 kts 26°
2026-05-05 19:22 -24.16015 -48.04828 31146 ft 438 kts 26°
2026-05-05 19:22 -24.10636 -48.01663 31152 ft 438 kts 26°
2026-05-05 19:23 -24.05257 -47.98502 31149 ft 438 kts 26°
2026-05-05 19:23 -23.99913 -47.95364 31155 ft 438 kts 26°
2026-05-05 19:24 -23.94535 -47.92209 31155 ft 438 kts 26°
2026-05-05 19:24 -23.89154 -47.89055 31157 ft 439 kts 26°
2026-05-05 19:25 -23.83773 -47.85905 31158 ft 439 kts 26°
2026-05-05 19:25 -23.78591 -47.82873 31159 ft 439 kts 26°
2026-05-05 19:26 -23.76004 -47.81103 31138 ft 439 kts 40°
2026-05-05 19:26 -23.73811 -47.78796 31046 ft 434 kts 43°
2026-05-05 19:26 -23.71642 -47.76547 30425 ft 438 kts 43°
2026-05-05 19:26 -23.69432 -47.74244 29655 ft 442 kts 43°
2026-05-05 19:27 -23.67191 -47.71894 28623 ft 452 kts 43°
2026-05-05 19:27 -23.64894 -47.69478 27473 ft 463 kts 43°
2026-05-05 19:27 -23.62535 -47.66998 26215 ft 478 kts 44°
2026-05-05 19:27 -23.60170 -47.64512 26094 ft 463 kts 44°
2026-05-05 19:28 -23.57890 -47.62116 26033 ft 447 kts 44°
2026-05-05 19:28 -23.55670 -47.59785 25740 ft 439 kts 44°
2026-05-05 19:28 -23.53486 -47.57493 25387 ft 433 kts 44°
2026-05-05 19:28 -23.51332 -47.55233 25055 ft 427 kts 44°
2026-05-05 19:29 -23.49203 -47.53001 24747 ft 421 kts 44°
2026-05-05 19:29 -23.47111 -47.50808 24431 ft 415 kts 44°
2026-05-05 19:29 -23.45045 -47.48643 24125 ft 409 kts 44°
2026-05-05 19:29 -23.43004 -47.46505 23822 ft 404 kts 44°
2026-05-05 19:30 -23.40988 -47.44395 23485 ft 399 kts 44°
2026-05-05 19:30 -23.39028 -47.42344 23199 ft 393 kts 44°
2026-05-05 19:30 -23.37089 -47.40316 23150 ft 383 kts 44°
2026-05-05 19:30 -23.35195 -47.38335 23158 ft 382 kts 44°
2026-05-05 19:31 -23.33281 -47.36333 23153 ft 380 kts 44°
2026-05-05 19:31 -23.31387 -47.34354 22759 ft 379 kts 44°
2026-05-05 19:31 -23.29474 -47.32356 22199 ft 382 kts 44°
2026-05-05 19:31 -23.27553 -47.30350 21769 ft 381 kts 44°
2026-05-05 19:32 -23.25654 -47.28369 21498 ft 375 kts 44°
2026-05-05 19:32 -23.23777 -47.26410 21133 ft 373 kts 44°
2026-05-05 19:32 -23.21915 -47.24469 20844 ft 369 kts 44°
2026-05-05 19:32 -23.20074 -47.22550 20700 ft 365 kts 44°
2026-05-05 19:33 -23.18239 -47.20638 20593 ft 366 kts 44°
2026-05-05 19:33 -23.16398 -47.18720 20395 ft 366 kts 44°
2026-05-05 19:33 -23.14580 -47.16805 20173 ft 364 kts 47°
2026-05-05 19:33 -23.12868 -47.14785 19932 ft 362 kts 48°
2026-05-05 19:34 -23.11164 -47.12782 19724 ft 361 kts 47°
2026-05-05 19:34 -23.09478 -47.10811 19500 ft 360 kts 47°
2026-05-05 19:34 -23.07755 -47.08803 19287 ft 358 kts 48°
2026-05-05 19:35 -23.04341 -47.04781 18233 ft 367 kts 48°
2026-05-05 19:35 -23.02605 -47.02737 17695 ft 368 kts 48°
2026-05-05 19:35 -23.00863 -47.00687 17158 ft 370 kts 48°
2026-05-05 19:35 -22.99116 -46.98632 16639 ft 371 kts 48°
2026-05-05 19:36 -22.97360 -46.96568 16138 ft 372 kts 48°
2026-05-05 19:36 -22.95601 -46.94501 15639 ft 372 kts 48°
2026-05-05 19:36 -22.93869 -46.92468 15192 ft 370 kts 48°
2026-05-05 19:36 -22.92148 -46.90446 14738 ft 359 kts 48°
2026-05-05 19:37 -22.90485 -46.88487 14304 ft 347 kts 50°
2026-05-05 19:37 -22.89335 -46.86317 14250 ft 321 kts 76°
2026-05-05 19:37 -22.89260 -46.83988 14228 ft 309 kts 103°
2026-05-05 19:37 -22.90118 -46.81884 14189 ft 307 kts 127°
2026-05-05 19:38 -22.91613 -46.80239 14183 ft 308 kts 140°
2026-05-05 19:38 -22.93262 -46.78754 14178 ft 308 kts 140°
2026-05-05 19:38 -22.94915 -46.77294 13910 ft 306 kts 141°
2026-05-05 19:38 -22.96586 -46.75837 13411 ft 310 kts 141°
2026-05-05 19:39 -22.98282 -46.74368 12867 ft 314 kts 141°
2026-05-05 19:39 -23.00009 -46.72882 12327 ft 318 kts 141°
2026-05-05 19:39 -23.01757 -46.71379 11824 ft 321 kts 141°
2026-05-05 19:39 -23.03503 -46.69881 11487 ft 319 kts 141°
2026-05-05 19:40 -23.05212 -46.68413 11220 ft 314 kts 141°
2026-05-05 19:40 -23.06911 -46.66954 10977 ft 309 kts 141°
2026-05-05 19:40 -23.08584 -46.65517 10741 ft 303 kts 141°
2026-05-05 19:40 -23.10231 -46.64103 10505 ft 299 kts 141°
2026-05-05 19:41 -23.11849 -46.62711 10278 ft 294 kts 141°
2026-05-05 19:41 -23.13446 -46.61339 10046 ft 291 kts 141°
2026-05-05 19:41 -23.15025 -46.59981 9802 ft 286 kts 141°
2026-05-05 19:41 -23.16556 -46.58665 9567 ft 281 kts 141°
2026-05-05 19:42 -23.18079 -46.57355 9352 ft 276 kts 141°
2026-05-05 19:42 -23.19677 -46.56253 9106 ft 272 kts 160°
2026-05-05 19:42 -23.21524 -46.56034 8866 ft 268 kts 188°
2026-05-05 19:42 -23.23243 -46.56744 8676 ft 263 kts 211°
2026-05-05 19:43 -23.24797 -46.57827 8506 ft 266 kts 211°
2026-05-05 19:43 -23.26341 -46.58900 8218 ft 268 kts 212°
2026-05-05 19:43 -23.27910 -46.60001 7896 ft 268 kts 212°
2026-05-05 19:43 -23.29464 -46.61098 7657 ft 264 kts 212°
2026-05-05 19:44 -23.30985 -46.62175 7482 ft 259 kts 212°
2026-05-05 19:44 -23.32498 -46.63249 7294 ft 259 kts 212°
2026-05-05 19:44 -23.34007 -46.64320 7128 ft 257 kts 212°
2026-05-05 19:44 -23.35492 -46.65375 6951 ft 251 kts 212°
2026-05-05 19:45 -23.36914 -46.66387 6800 ft 243 kts 212°
2026-05-05 19:45 -23.38318 -46.67385 6634 ft 236 kts 212°
2026-05-05 19:45 -23.39687 -46.68358 6492 ft 234 kts 212°
2026-05-05 19:45 -23.41053 -46.69331 6328 ft 234 kts 212°
2026-05-05 19:46 -23.42490 -46.70080 6148 ft 231 kts 188°
2026-05-05 19:46 -23.44080 -46.70011 5993 ft 229 kts 168°
2026-05-05 19:46 -23.45644 -46.69683 5868 ft 229 kts 168°
2026-05-05 19:46 -23.47138 -46.69123 5668 ft 227 kts 144°
2026-05-05 19:47 -23.48137 -46.67857 5515 ft 225 kts 114°
2026-05-05 19:47 -23.48412 -46.66192 5372 ft 227 kts 85°
2026-05-05 19:47 -23.48067 -46.64498 5262 ft 229 kts 77°
2026-05-05 19:47 -23.47666 -46.62820 5016 ft 229 kts 76°
2026-05-05 19:48 -23.47381 -46.61709 4827 ft 230 kts 76°
2026-05-05 19:48 -23.46789 -46.59509 4457 ft 227 kts 75°
2026-05-05 19:48 -23.46348 -46.57879 4186 ft 218 kts 75°
2026-05-05 19:48 -23.46065 -46.56824 3979 ft 211 kts 75°
2026-05-05 19:49 -23.45670 -46.55355 3730 ft 194 kts 76°
2026-05-05 19:49 -23.45309 -46.54014 3494 ft 176 kts 76°
2026-05-05 19:49 -23.44982 -46.52797 3291 ft 158 kts 75°
2026-05-05 19:49 -23.44686 -46.51692 3110 ft 148 kts 74°
2026-05-05 19:50 -23.44400 -46.50628 2890 ft 145 kts 72°
2026-05-05 19:50 -23.44120 -46.49591 2690 ft 144 kts 71°
2026-05-05 19:50 -23.43857 -46.48545 2507 ft 143 kts 72°
2026-05-05 19:50 -23.43582 -46.47589 2463 ft 98 kts 73°
2026-05-05 19:51 -23.43493 -46.47271 2463 ft 28 kts 73°
2026-05-05 19:51 -23.43430 -46.47047 2460 ft 33 kts 64°
2026-05-05 19:51 -23.43278 -46.46838 2464 ft 38 kts 45°
2026-05-05 19:51 -23.43126 -46.46714 2457 ft 25 kts
2026-05-05 19:52 -23.42942 -46.46764 2459 ft 28 kts 344°
2026-05-05 19:52 -23.42795 -46.46820 2457 ft 21 kts 315°
2026-05-05 19:52 -23.42788 -46.46938 2458 ft 18 kts 256°
2026-05-05 19:52 -23.42836 -46.47093 2456 ft 25 kts 253°
2026-05-05 19:53 -23.42892 -46.47296 2457 ft 31 kts 252°
2026-05-05 19:53 -23.42902 -46.47486 2458 ft 19 kts 316°
2026-05-05 19:53 -23.42812 -46.47549 2458 ft 12 kts
2026-05-05 19:53 -23.42722 -46.47530 2461 ft 1 kts 41°
2026-05-05 19:54 -23.42708 -46.47498 2458 ft 9 kts 70°
2026-05-05 19:54 -23.42693 -46.47449 2460 ft 0 kts 72°
2026-05-05 19:54 -23.42692 -46.47447 2459 ft 0 kts 72°